Location: ?????????
(53.2086°N, 54.0693°E)
Time: 20:16:13
(UTC+00:00)

Cosmos 2251 Rocket - Pass Details

Date: 08 December 2019
Orbit: 765 x 791 km, 74.0° (Epoch: 26 January)

Event Time Altitude Azimuth Distance (km) Brightness Sun altitude
Rises 15:13:32 0° 225° (SW) 3,257 7.4 -26.6°
Reaches altitude 10° 15:16:01 10° 231° (SW) 2,329 6.7 -27.0°
Maximum altitude 15:21:05 46° 305° (NW) 1,043 4.4 -27.7°
Enters shadow 15:22:56 33° 353° (N) 1,290 4.6 -28.0°
